| time (UTC) | temp F | wind direction | speed MPH | gust MPH | rain 1hr in | rain 24hr in | rain mn in | humidity % | barometer mb |
| 20260506164646 | 77 | 74 | 2.0 | 6.0 | 0.00 | 0.00 | 0.00 | 88 | 1012.8 |
| 20260506164144 | 77 | 88 | 2.0 | 8.0 | 0.00 | 0.00 | 0.00 | 88 | 1012.8 |
| 20260506163638 | 77 | 93 | 5.0 | 8.0 | 0.00 | 0.00 | 0.00 | 88 | 1012.9 |
| 20260506162709 | 77 | 111 | 7.0 | 10.0 | 0.00 | 0.00 | 0.00 | 89 | 1012.8 |
| 20260506162159 | 77 | 115 | 6.0 | 9.0 | 0.00 | 0.00 | 0.00 | 89 | 1012.8 |
| 20260506161639 | 76 | 70 | 6.0 | 9.0 | 0.00 | 0.00 | 0.00 | 89 | 1012.8 |
| 20260506161143 | 76 | 104 | 5.0 | 7.0 | 0.00 | 0.00 | 0.00 | 89 | 1012.8 |
| 20260506160622 | 76 | 86 | 4.0 | 6.0 | 0.00 | 0.00 | 0.00 | 89 | 1012.8 |
| 20260506160223 | 76 | 107 | 1.0 | 6.0 | 0.00 | 0.00 | 0.00 | 89 | 1012.9 |
| 20260506155123 | 76 | 111 | 4.0 | 5.0 | 0.00 | 0.00 | 0.00 | 90 | 1012.8 |
| 20260506154623 | 76 | 111 | 0.0 | 4.0 | 0.00 | 0.00 | 0.00 | 90 | 1012.7 |
| 20260506154122 | 75 | 111 | 1.0 | 5.0 | 0.00 | 0.00 | 0.00 | 90 | 1012.6 |
| 20260506153628 | 75 | 111 | 3.0 | 5.0 | 0.00 | 0.00 | 0.00 | 90 | 1012.6 |
| 20260506153232 | 75 | 118 | 2.0 | 6.0 | 0.00 | 0.00 | 0.00 | 90 | 1012.4 |
| 20260506152650 | 75 | 119 | 3.0 | 6.0 | 0.00 | 0.00 | 0.00 | 90 | 1012.4 |
| 20260506152145 | 75 | 124 | 0.0 | 7.0 | 0.00 | 0.00 | 0.00 | 90 | 1012.1 |
| 20260506151210 | 75 | 126 | 5.0 | 7.0 | 0.00 | 0.00 | 0.00 | 90 | 1011.9 |
| 20260506150626 | 75 | 115 | 2.0 | 5.0 | 0.00 | 0.00 | 0.00 | 90 | 1011.7 |
| 20260506150142 | 75 | 104 | 3.0 | 7.0 | 0.00 | 0.00 | 0.00 | 90 | 1011.9 |
| 20260506145733 | 75 | 123 | 4.0 | 7.0 | 0.00 | 0.00 | 0.00 | 90 | 1011.9 |
| 20260506145204 | 75 | 122 | 1.0 | 4.0 | 0.00 | 0.00 | 0.00 | 90 | 1011.9 |
| 20260506144638 | 75 | 122 | 0.0 | 1.0 | 0.00 | 0.00 | 0.00 | 90 | 1011.7 |
| 20260506144135 | 75 | 122 | 0.0 | 1.0 | 0.00 | 0.00 | 0.00 | 90 | 1011.8 |
| 20260506143616 | 75 | 122 | 0.0 | 1.0 | 0.00 | 0.00 | 0.00 | 90 | 1011.8 |
| 20260506143152 | 75 | 122 | 0.0 | 2.0 | 0.00 | 0.00 | 0.00 | 90 | 1011.7 |
| 20260506142650 | 75 | 122 | 1.0 | 2.0 | 0.00 | 0.00 | 0.00 | 90 | 1011.7 |
| 20260506142146 | 75 | 122 | 1.0 | 2.0 | 0.00 | 0.00 | 0.00 | 90 | 1011.8 |
| 20260506141640 | 75 | 137 | 1.0 | 2.0 | 0.00 | 0.00 | 0.00 | 90 | 1011.8 |
| 20260506141142 | 75 | 149 | 0.0 | 4.0 | 0.00 | 0.00 | 0.00 | 90 | 1011.6 |
| 20260506140700 | 75 | 149 | 1.0 | 5.0 | 0.00 | 0.00 | 0.00 | 90 | 1011.5 |
| 20260506140159 | 75 | 151 | 1.0 | 6.0 | 0.00 | 0.00 | 0.00 | 90 | 1011.3 |
| 20260506135651 | 75 | 151 | 5.0 | 7.0 | 0.00 | 0.00 | 0.00 | 90 | 1011.0 |
| 20260506135203 | 75 | 150 | 5.0 | 9.0 | 0.00 | 0.00 | 0.00 | 90 | 1010.7 |
| 20260506134654 | 75 | 146 | 7.0 | 9.0 | 0.00 | 0.00 | 0.00 | 90 | 1010.9 |
| 20260506134129 | 75 | 130 | 7.0 | 9.0 | 0.00 | 0.00 | 0.00 | 90 | 1010.7 |
| 20260506133628 | 75 | 147 | 7.0 | 8.0 | 0.00 | 0.00 | 0.00 | 90 | 1010.6 |
| 20260506133126 | 75 | 132 | 6.0 | 8.0 | 0.00 | 0.00 | 0.00 | 90 | 1010.6 |
| 20260506132644 | 75 | 135 | 6.0 | 10.0 | 0.00 | 0.00 | 0.00 | 90 | 1010.5 |
| 20260506132229 | 75 | 144 | 6.0 | 10.0 | 0.00 | 0.00 | 0.00 | 91 | 1010.5 |
| 20260506131703 | 75 | 138 | 6.0 | 8.0 | 0.00 | 0.00 | 0.00 | 91 | 1010.6 |
| 20260506131200 | 75 | 134 | 6.0 | 8.0 | 0.00 | 0.00 | 0.00 | 91 | 1010.4 |
| 20260506130654 | 75 | 136 | 7.0 | 8.0 | 0.00 | 0.00 | 0.00 | 91 | 1010.2 |
| 20260506130230 | 75 | 106 | 7.0 | 9.0 | 0.00 | 0.00 | 0.00 | 91 | 1010.4 |
| 20260506125720 | 75 | 137 | 6.0 | 8.0 | 0.00 | 0.00 | 0.00 | 91 | 1010.3 |
| 20260506125207 | 75 | 124 | 6.0 | 7.0 | 0.00 | 0.00 | 0.00 | 91 | 1010.3 |
| 20260506124708 | 75 | 132 | 6.0 | 7.0 | 0.00 | 0.00 | 0.00 | 91 | 1010.4 |
| 20260506124146 | 75 | 141 | 6.0 | 7.0 | 0.00 | 0.00 | 0.00 | 91 | 1010.3 |
| 20260506123640 | 75 | 128 | 5.0 | 7.0 | 0.00 | 0.00 | 0.00 | 90 | 1010.3 |
| 20260506122711 | 75 | 124 | 5.0 | 6.0 | 0.00 | 0.00 | 0.00 | 90 | 1010.3 |
| 20260506122206 | 75 | 139 | 5.0 | 6.0 | 0.00 | 0.00 | 0.00 | 90 | 1010.4 |
| 20260506121624 | 75 | 139 | 4.0 | 6.0 | 0.00 | 0.00 | 0.00 | 90 | 1010.3 |
| 20260506121129 | 75 | 136 | 5.0 | 6.0 | 0.00 | 0.00 | 0.00 | 90 | 1010.3 |
| 20260506120625 | 75 | 133 | 5.0 | 7.0 | 0.00 | 0.00 | 0.00 | 90 | 1010.4 |
| 20260506120137 | 75 | 157 | 5.0 | 7.0 | 0.00 | 0.00 | 0.00 | 90 | 1010.2 |
| 20260506115638 | 75 | 147 | 5.0 | 6.0 | 0.00 | 0.00 | 0.00 | 90 | 1010.2 |
| 20260506115139 | 75 | 161 | 4.0 | 6.0 | 0.00 | 0.00 | 0.00 | 90 | 1010.2 |
| 20260506114643 | 75 | 155 | 3.0 | 6.0 | 0.00 | 0.00 | 0.00 | 90 | 1010.2 |
| 20260506114145 | 75 | 150 | 5.0 | 6.0 | 0.00 | 0.00 | 0.00 | 90 | 1010.1 |
| 20260506113621 | 75 | 155 | 5.0 | 6.0 | 0.00 | 0.00 | 0.00 | 90 | 1010.1 |
| 20260506113122 | 75 | 163 | 3.0 | 6.0 | 0.00 | 0.00 | 0.00 | 90 | 1010.0 |
| 20260506112632 | 75 | 164 | 4.0 | 6.0 | 0.00 | 0.00 | 0.00 | 90 | 1010.0 |
| 20260506112218 | 75 | 161 | 4.0 | 6.0 | 0.00 | 0.00 | 0.00 | 90 | 1010.1 |
| 20260506111642 | 75 | 162 | 4.0 | 6.0 | 0.00 | 0.00 | 0.00 | 90 | 1010.0 |
| 20260506111144 | 75 | 162 | 5.0 | 6.0 | 0.00 | 0.00 | 0.00 | 90 | 1009.7 |
| 20260506110648 | 75 | 165 | 5.0 | 6.0 | 0.00 | 0.00 | 0.00 | 90 | 1010.0 |
| 20260506110147 | 75 | 188 | 4.0 | 6.0 | 0.00 | 0.00 | 0.00 | 90 | 1010.1 |
| 20260506105127 | 75 | 161 | 6.0 | 8.0 | 0.00 | 0.00 | 0.00 | 90 | 1009.8 |
| 20260506104624 | 75 | 168 | 5.0 | 6.0 | 0.00 | 0.00 | 0.00 | 90 | 1009.7 |
| 20260506104123 | 75 | 176 | 5.0 | 9.0 | 0.00 | 0.00 | 0.00 | 90 | 1009.8 |
| 20260506103620 | 75 | 165 | 6.0 | 9.0 | 0.00 | 0.00 | 0.00 | 90 | 1009.8 |
| 20260506103118 | 75 | 182 | 6.0 | 9.0 | 0.00 | 0.00 | 0.00 | 90 | 1009.9 |
| 20260506102618 | 75 | 187 | 7.0 | 10.0 | 0.00 | 0.00 | 0.00 | 90 | 1009.8 |
| 20260506102116 | 75 | 186 | 7.0 | 10.0 | 0.00 | 0.00 | 0.00 | 90 | 1009.9 |
| 20260506101701 | 75 | 182 | 6.0 | 8.0 | 0.00 | 0.00 | 0.00 | 90 | 1009.8 |
| 20260506100622 | 75 | 186 | 7.0 | 9.0 | 0.00 | 0.00 | 0.00 | 90 | 1009.8 |
| 20260506100205 | 75 | 190 | 7.0 | 9.0 | 0.00 | 0.00 | 0.00 | 90 | 1009.7 |
| 20260506095623 | 75 | 186 | 6.0 | 10.0 | 0.00 | 0.00 | 0.00 | 90 | 1009.6 |
| 20260506095223 | 75 | 188 | 8.0 | 10.0 | 0.00 | 0.00 | 0.00 | 90 | 1009.7 |
| 20260506094612 | 75 | 186 | 7.0 | 9.0 | 0.00 | 0.00 | 0.00 | 90 | 1009.6 |
| 20260506094209 | 75 | 179 | 7.0 | 9.0 | 0.00 | 0.00 | 0.00 | 90 | 1009.4 |
| 20260506093707 | 75 | 182 | 6.0 | 10.0 | 0.00 | 0.00 | 0.00 | 89 | 1009.6 |
| 20260506093205 | 75 | 190 | 7.0 | 10.0 | 0.00 | 0.00 | 0.00 | 89 | 1009.6 |
| 20260506092701 | 75 | 183 | 8.0 | 10.0 | 0.00 | 0.00 | 0.00 | 89 | 1009.4 |
| 20260506092150 | 75 | 175 | 8.0 | 14.0 | 0.00 | 0.00 | 0.00 | 89 | 1009.3 |
| 20260506091644 | 75 | 176 | 10.0 | 14.0 | 0.00 | 0.00 | 0.00 | 90 | 1009.3 |
| 20260506090715 | 75 | 175 | 10.0 | 14.0 | 0.00 | 0.00 | 0.00 | 89 | 1009.3 |
| 20260506090149 | 75 | 186 | 12.0 | 15.0 | 0.00 | 0.00 | 0.00 | 89 | 1009.3 |
| 20260506085645 | 75 | 180 | 12.0 | 18.0 | 0.00 | 0.00 | 0.00 | 89 | 1009.2 |
| 20260506085138 | 75 | 162 | 13.0 | 18.0 | 0.00 | 0.00 | 0.00 | 89 | 1009.3 |
| 20260506084212 | 75 | 184 | 12.0 | 21.0 | 0.00 | 0.00 | 0.00 | 89 | 1009.2 |
| 20260506083649 | 75 | 164 | 11.0 | 16.0 | 0.00 | 0.00 | 0.00 | 89 | 1009.3 |
| 20260506083145 | 75 | 176 | 9.0 | 14.0 | 0.00 | 0.00 | 0.00 | 89 | 1009.3 |
| 20260506082640 | 76 | 184 | 10.0 | 14.0 | 0.00 | 0.00 | 0.00 | 89 | 1009.2 |
| 20260506082118 | 75 | 168 | 10.0 | 13.0 | 0.00 | 0.00 | 0.00 | 89 | 1009.4 |
| 20260506081627 | 76 | 164 | 9.0 | 13.0 | 0.00 | 0.00 | 0.00 | 89 | 1009.4 |
| 20260506081125 | 76 | 178 | 9.0 | 13.0 | 0.00 | 0.00 | 0.00 | 89 | 1009.4 |
| 20260506080632 | 76 | 178 | 8.0 | 10.0 | 0.00 | 0.00 | 0.00 | 89 | 1009.5 |
| 20260506080135 | 76 | 180 | 7.0 | 16.0 | 0.00 | 0.00 | 0.00 | 89 | 1009.5 |
| 20260506073115 | 76 | 174 | 13.0 | 16.0 | 0.00 | 0.00 | 0.00 | 89 | 1009.7 |
| 20260506072613 | 76 | 182 | 11.0 | 16.0 | 0.00 | 0.00 | 0.00 | 89 | 1009.7 |
| 20260506072126 | 76 | 171 | 12.0 | 16.0 | 0.00 | 0.00 | 0.00 | 90 | 1009.8 |
| 20260506071622 | 76 | 172 | 12.0 | 14.0 | 0.00 | 0.00 | 0.00 | 89 | 1009.8 |
| 20260506071124 | 76 | 170 | 9.0 | 14.0 | 0.00 | 0.00 | 0.00 | 89 | 1009.8 |
| 20260506070620 | 76 | 174 | 9.0 | 13.0 | 0.00 | 0.00 | 0.00 | 89 | 1010.0 |
| 20260506070133 | 76 | 176 | 11.0 | 14.0 | 0.00 | 0.00 | 0.00 | 89 | 1010.0 |
| 20260506062119 | 76 | 171 | 10.0 | 14.0 | 0.00 | 0.00 | 0.00 | 89 | 1010.0 |
| 20260506061617 | 76 | 175 | 10.0 | 15.0 | 0.00 | 0.00 | 0.00 | 89 | 1010.0 |
| 20260506061130 | 76 | 159 | 13.0 | 15.0 | 0.00 | 0.00 | 0.00 | 89 | 1010.0 |
| 20260506060624 | 76 | 157 | 13.0 | 18.0 | 0.00 | 0.00 | 0.00 | 89 | 1010.2 |
| 20260506060118 | 76 | 155 | 12.0 | 18.0 | 0.00 | 0.00 | 0.00 | 89 | 1010.1 |
| 20260506051125 | 76 | 151 | 11.0 | 15.0 | 0.00 | 0.00 | 0.00 | 88 | 1010.1 |
| 20260506050619 | 76 | 148 | 10.0 | 16.0 | 0.00 | 0.00 | 0.00 | 88 | 1010.1 |
| 20260506050131 | 76 | 162 | 11.0 | 16.0 | 0.00 | 0.00 | 0.00 | 88 | 1010.0 |
| 20260506044709 | 77 | 154 | 10.0 | 19.0 | 0.00 | 0.00 | 0.00 | 88 | 1010.0 |
| 20260506044205 | 77 | 157 | 12.0 | 19.0 | 0.00 | 0.00 | 0.00 | 88 | 1010.0 |
| 20260506043705 | 77 | 163 | 13.0 | 19.0 | 0.00 | 0.00 | 0.00 | 88 | 1010.0 |
| 20260506043114 | 77 | 149 | 14.0 | 21.0 | 0.00 | 0.00 | 0.00 | 88 | 1009.9 |
| 20260506042611 | 77 | 179 | 16.0 | 21.0 | 0.00 | 0.00 | 0.00 | 88 | 1010.0 |
| 20260506042208 | 77 | 174 | 13.0 | 16.0 | 0.00 | 0.00 | 0.00 | 88 | 1010.0 |
| 20260506041704 | 77 | 156 | 13.0 | 18.0 | 0.00 | 0.00 | 0.00 | 88 | 1010.0 |
| 20260506041201 | 77 | 174 | 15.0 | 18.0 | 0.00 | 0.00 | 0.00 | 88 | 1010.0 |
| 20260506040204 | 77 | 162 | 15.0 | 20.0 | 0.00 | 0.00 | 0.00 | 87 | 1009.9 |
| 20260506035700 | 77 | 166 | 16.0 | 20.0 | 0.00 | 0.00 | 0.00 | 87 | 1009.8 |
| 20260506035155 | 77 | 161 | 10.0 | 13.0 | 0.00 | 0.00 | 0.00 | 87 | 1009.8 |
| 20260506034704 | 77 | 163 | 10.0 | 15.0 | 0.00 | 0.00 | 0.00 | 87 | 1009.6 |
| 20260506034205 | 77 | 167 | 12.0 | 15.0 | 0.00 | 0.00 | 0.00 | 87 | 1009.5 |
| 20260506033644 | 78 | 166 | 11.0 | 15.0 | 0.00 | 0.00 | 0.00 | 87 | 1009.5 |
| 20260506033159 | 78 | 155 | 11.0 | 16.0 | 0.00 | 0.00 | 0.00 | 87 | 1009.4 |
| 20260506032655 | 78 | 165 | 12.0 | 16.0 | 0.00 | 0.00 | 0.00 | 87 | 1009.2 |
| 20260506032217 | 78 | 141 | 12.0 | 16.0 | 0.00 | 0.00 | 0.00 | 86 | 1009.0 |
| 20260506031709 | 78 | 157 | 13.0 | 16.0 | 0.00 | 0.00 | 0.00 | 86 | 1008.9 |
| 20260506031206 | 78 | 157 | 13.0 | 20.0 | 0.00 | 0.00 | 0.00 | 86 | 1009.0 |
| 20260506030710 | 78 | 162 | 14.0 | 20.0 | 0.00 | 0.00 | 0.00 | 86 | 1008.9 |
| 20260506030212 | 78 | 158 | 17.0 | 20.0 | 0.00 | 0.00 | 0.00 | 86 | 1008.8 |
| 20260506025711 | 79 | 157 | 15.0 | 19.0 | 0.00 | 0.00 | 0.00 | 85 | 1008.7 |
| 20260506025210 | 79 | 150 | 12.0 | 16.0 | 0.00 | 0.00 | 0.00 | 85 | 1008.7 |
| 20260506024707 | 79 | 155 | 12.0 | 14.0 | 0.00 | 0.00 | 0.00 | 85 | 1008.7 |
| 20260506024145 | 79 | 146 | 12.0 | 14.0 | 0.00 | 0.00 | 0.00 | 85 | 1008.6 |
| 20260506023210 | 79 | 152 | 12.0 | 15.0 | 0.00 | 0.00 | 0.00 | 84 | 1008.4 |
| 20260506022619 | 79 | 147 | 13.0 | 18.0 | 0.00 | 0.00 | 0.00 | 84 | 1008.2 |
| 20260506022144 | 80 | 148 | 14.0 | 18.0 | 0.00 | 0.00 | 0.00 | 83 | 1008.2 |
| 20260506021659 | 80 | 146 | 14.0 | 18.0 | 0.00 | 0.00 | 0.00 | 83 | 1008.1 |
| 20260506021155 | 80 | 145 | 11.0 | 18.0 | 0.00 | 0.00 | 0.00 | 83 | 1008.2 |
| 20260506020650 | 79 | 138 | 7.0 | 9.0 | 0.00 | 0.00 | 0.00 | 83 | 1008.2 |
| 20260506020147 | 80 | 128 | 7.0 | 9.0 | 0.00 | 0.00 | 0.00 | 82 | 1008.0 |
| 20260506015621 | 80 | 103 | 7.0 | 9.0 | 0.00 | 0.00 | 0.00 | 82 | 1008.0 |
| 20260506015124 | 80 | 104 | 6.0 | 8.0 | 0.00 | 0.00 | 0.00 | 82 | 1007.9 |
| 20260506014620 | 80 | 116 | 7.0 | 8.0 | 0.00 | 0.00 | 0.00 | 82 | 1007.8 |
| 20260506014116 | 80 | 114 | 6.0 | 7.0 | 0.00 | 0.00 | 0.00 | 82 | 1007.7 |
| 20260506013617 | 80 | 113 | 5.0 | 7.0 | 0.00 | 0.00 | 0.00 | 82 | 1007.7 |
| 20260506013201 | 80 | 115 | 5.0 | 7.0 | 0.00 | 0.00 | 0.00 | 82 | 1007.6 |
| 20260506012207 | 81 | 127 | 5.0 | 6.0 | 0.00 | 0.00 | 0.00 | 81 | 1007.5 |
| 20260506011656 | 81 | 128 | 5.0 | 6.0 | 0.00 | 0.00 | 0.00 | 81 | 1007.7 |
| 20260506011131 | 81 | 120 | 5.0 | 7.0 | 0.00 | 0.00 | 0.00 | 81 | 1007.7 |
| 20260506010732 | 81 | 126 | 5.0 | 8.0 | 0.00 | 0.00 | 0.00 | 81 | 1007.6 |
| 20260506010204 | 81 | 133 | 6.0 | 8.0 | 0.00 | 0.00 | 0.00 | 81 | 1007.6 |
| 20260506005207 | 81 | 138 | 6.0 | 7.0 | 0.00 | 0.00 | 0.00 | 82 | 1007.6 |
| 20260506004611 | 80 | 133 | 4.0 | 6.0 | 0.00 | 0.00 | 0.00 | 83 | 1007.7 |
| 20260506004211 | 80 | 166 | 3.0 | 4.0 | 0.00 | 0.00 | 0.00 | 83 | 1007.6 |
| 20260506003704 | 80 | 168 | 3.0 | 4.0 | 0.00 | 0.00 | 0.00 | 82 | 1007.6 |
| 20260506002627 | 79 | 168 | 0.0 | 1.0 | 0.00 | 0.00 | 0.00 | 82 | 1007.6 |
| 20260506002122 | 79 | 168 | 1.0 | 1.0 | 0.00 | 0.00 | 0.00 | 82 | 1007.5 |
| 20260506001724 | 79 | 168 | 0.0 | 4.0 | 0.00 | 0.00 | 0.00 | 82 | 1007.5 |
| 20260506001158 | 79 | 168 | 1.0 | 4.0 | 0.00 | 0.00 | 0.00 | 82 | 1007.5 |
| 20260506000652 | 80 | 168 | 2.0 | 5.0 | 0.00 | 0.00 | 0.00 | 82 | 1007.5 |
| 20260506000151 | 80 | 167 | 3.0 | 6.0 | 0.00 | 0.00 | 0.00 | 81 | 1007.4 |
| 20260505235634 | 80 | 168 | 5.0 | 6.0 | 0.00 | 0.00 | 0.00 | 81 | 1007.5 |
| 20260505235125 | 80 | 176 | 4.0 | 7.0 | 0.00 | 0.00 | 0.00 | 81 | 1007.4 |
| 20260505234623 | 80 | 172 | 5.0 | 9.0 | 0.00 | 0.00 | 0.00 | 81 | 1007.4 |
| 20260505234122 | 81 | 162 | 7.0 | 11.0 | 0.00 | 0.00 | 0.00 | 80 | 1007.2 |
| 20260505233644 | 81 | 166 | 9.0 | 11.0 | 0.00 | 0.00 | 0.00 | 80 | 1007.3 |
| 20260505233142 | 80 | 178 | 8.0 | 9.0 | 0.00 | 0.00 | 0.00 | 80 | 1007.3 |
| 20260505232641 | 81 | 172 | 8.0 | 9.0 | 0.00 | 0.00 | 0.00 | 80 | 1007.2 |
| 20260505232137 | 80 | 165 | 5.0 | 7.0 | 0.00 | 0.00 | 0.00 | 80 | 1007.2 |
| 20260505231650 | 81 | 176 | 4.0 | 8.0 | 0.00 | 0.00 | 0.00 | 80 | 1007.2 |
| 20260505231147 | 81 | 182 | 5.0 | 11.0 | 0.00 | 0.00 | 0.00 | 80 | 1007.1 |
| 20260505230649 | 81 | 178 | 8.0 | 12.0 | 0.00 | 0.00 | 0.00 | 80 | 1007.2 |
| 20260505230215 | 81 | 174 | 8.0 | 12.0 | 0.00 | 0.00 | 0.00 | 80 | 1006.9 |
| 20260505225706 | 81 | 162 | 11.0 | 13.0 | 0.00 | 0.00 | 0.00 | 80 | 1007.0 |
| 20260505225203 | 80 | 172 | 10.0 | 13.0 | 0.00 | 0.00 | 0.00 | 80 | 1006.8 |
| 20260505224658 | 81 | 179 | 9.0 | 14.0 | 0.00 | 0.00 | 0.00 | 80 | 1007.1 |
| 20260505224138 | 80 | 149 | 12.0 | 14.0 | 0.00 | 0.00 | 0.00 | 80 | 1006.9 |
| 20260505223617 | 80 | 159 | 11.0 | 12.0 | 0.00 | 0.00 | 0.00 | 80 | 1007.1 |
| 20260505223138 | 81 | 163 | 8.0 | 11.0 | 0.00 | 0.00 | 0.00 | 80 | 1007.2 |
| 20260505222633 | 81 | 187 | 8.0 | 12.0 | 0.00 | 0.00 | 0.00 | 80 | 1007.1 |
| 20260505222148 | 81 | 174 | 10.0 | 14.0 | 0.00 | 0.00 | 0.00 | 80 | 1007.2 |
| 20260505221659 | 80 | 181 | 11.0 | 14.0 | 0.00 | 0.00 | 0.00 | 80 | 1006.9 |
| 20260505221221 | 80 | 185 | 11.0 | 13.0 | 0.00 | 0.00 | 0.00 | 80 | 1007.0 |
| 20260505220119 | 80 | 179 | 7.0 | 13.0 | 0.00 | 0.00 | 0.00 | 81 | 1007.2 |
| 20260505215614 | 80 | 177 | 9.0 | 13.0 | 0.00 | 0.00 | 0.00 | 81 | 1007.2 |
| 20260505215117 | 80 | 174 | 11.0 | 13.0 | 0.00 | 0.00 | 0.00 | 81 | 1007.2 |
| 20260505214613 | 80 | 173 | 11.0 | 13.0 | 0.00 | 0.00 | 0.00 | 81 | 1007.3 |
| 20260505214115 | 79 | 179 | 9.0 | 11.0 | 0.00 | 0.00 | 0.00 | 82 | 1007.3 |
| 20260505213630 | 79 | 175 | 6.0 | 9.0 | 0.00 | 0.00 | 0.00 | 82 | 1007.7 |
| 20260505213144 | 79 | 182 | 7.0 | 11.0 | 0.00 | 0.00 | 0.00 | 82 | 1007.8 |
| 20260505212208 | 79 | 153 | 8.0 | 10.0 | 0.00 | 0.00 | 0.00 | 82 | 1007.8 |
| 20260505211706 | 79 | 193 | 6.0 | 12.0 | 0.00 | 0.00 | 0.00 | 82 | 1007.8 |
| 20260505211203 | 79 | 163 | 10.0 | 12.0 | 0.00 | 0.00 | 0.00 | 82 | 1007.9 |
| 20260505210655 | 79 | 155 | 10.0 | 14.0 | 0.00 | 0.00 | 0.00 | 82 | 1007.9 |
| 20260505210148 | 79 | 147 | 11.0 | 14.0 | 0.00 | 0.00 | 0.00 | 82 | 1008.0 |
| 20260505205642 | 79 | 166 | 10.0 | 13.0 | 0.00 | 0.00 | 0.00 | 83 | 1008.0 |
| 20260505204706 | 79 | 200 | 5.0 | 9.0 | 0.00 | 0.00 | 0.00 | 83 | 1008.1 |
| 20260505204204 | 79 | 179 | 7.0 | 11.0 | 0.00 | 0.00 | 0.00 | 82 | 1008.2 |
| 20260505203641 | 79 | 160 | 9.0 | 11.0 | 0.00 | 0.00 | 0.00 | 82 | 1008.3 |
| 20260505202711 | 79 | 175 | 6.0 | 14.0 | 0.00 | 0.00 | 0.00 | 83 | 1008.7 |
| 20260505202210 | 79 | 199 | 8.0 | 14.0 | 0.00 | 0.00 | 0.00 | 83 | 1008.6 |
| 20260505201702 | 79 | 202 | 7.0 | 11.0 | 0.00 | 0.00 | 0.00 | 83 | 1008.7 |
| 20260505201154 | 78 | 202 | 8.0 | 12.0 | 0.00 | 0.00 | 0.00 | 83 | 1008.8 |
| 20260505200649 | 78 | 172 | 11.0 | 12.0 | 0.00 | 0.00 | 0.00 | 83 | 1008.8 |
| 20260505200139 | 78 | 186 | 9.0 | 12.0 | 0.00 | 0.00 | 0.00 | 83 | 1008.8 |
| 20260505195612 | 78 | 188 | 10.0 | 12.0 | 0.00 | 0.00 | 0.00 | 84 | 1008.8 |
| 20260505195126 | 78 | 175 | 7.0 | 12.0 | 0.00 | 0.00 | 0.00 | 84 | 1008.9 |
| 20260505194624 | 78 | 203 | 8.0 | 13.0 | 0.00 | 0.00 | 0.00 | 84 | 1009.0 |
| 20260505194127 | 78 | 175 | 8.0 | 11.0 | 0.00 | 0.00 | 0.00 | 84 | 1009.1 |
| 20260505193625 | 78 | 197 | 9.0 | 12.0 | 0.00 | 0.00 | 0.00 | 84 | 1009.0 |
| 20260505193125 | 78 | 169 | 6.0 | 12.0 | 0.00 | 0.00 | 0.00 | 84 | 1009.1 |
| 20260505192627 | 78 | 216 | 8.0 | 12.0 | 0.00 | 0.00 | 0.00 | 84 | 1009.3 |
| 20260505192142 | 77 | 215 | 8.0 | 12.0 | 0.00 | 0.00 | 0.00 | 85 | 1009.3 |
| 20260505191210 | 77 | 193 | 10.0 | 15.0 | 0.00 | 0.00 | 0.00 | 85 | 1009.2 |
| 20260505190621 | 77 | 182 | 7.0 | 10.0 | 0.00 | 0.00 | 0.00 | 86 | 1009.2 |
| 20260505190144 | 77 | 178 | 6.0 | 14.0 | 0.00 | 0.00 | 0.00 | 86 | 1009.3 |
| 20260505185657 | 77 | 206 | 6.0 | 14.0 | 0.00 | 0.00 | 0.00 | 86 | 1009.5 |
| 20260505185210 | 76 | 189 | 7.0 | 12.0 | 0.00 | 0.00 | 0.00 | 86 | 1009.7 |
| 20260505184707 | 76 | 163 | 9.0 | 12.0 | 0.00 | 0.00 | 0.00 | 86 | 1009.7 |
| 20260505184115 | 76 | 203 | 7.0 | 10.0 | 0.00 | 0.00 | 0.00 | 86 | 1009.9 |
| 20260505183717 | 76 | 172 | 8.0 | 10.0 | 0.00 | 0.00 | 0.00 | 86 | 1009.9 |
| 20260505183133 | 76 | 181 | 7.0 | 11.0 | 0.00 | 0.00 | 0.00 | 87 | 1010.0 |
| 20260505182634 | 76 | 207 | 9.0 | 11.0 | 0.00 | 0.00 | 0.00 | 86 | 1010.0 |
| 20260505182148 | 76 | 212 | 5.0 | 10.0 | 0.00 | 0.00 | 0.00 | 86 | 1010.0 |
| 20260505181642 | 76 | 222 | 7.0 | 12.0 | 0.00 | 0.00 | 0.00 | 86 | 1010.2 |
| 20260505181122 | 76 | 212 | 10.0 | 12.0 | 0.00 | 0.00 | 0.00 | 86 | 1010.1 |
| 20260505180614 | 76 | 198 | 8.0 | 13.0 | 0.00 | 0.00 | 0.00 | 87 | 1010.1 |
| 20260505180125 | 76 | 213 | 9.0 | 13.0 | 0.00 | 0.00 | 0.00 | 87 | 1010.1 |
| 20260505175645 | 76 | 238 | 6.0 | 9.0 | 0.00 | 0.00 | 0.00 | 87 | 1010.2 |
| 20260505174706 | 75 | 226 | 8.0 | 11.0 | 0.00 | 0.00 | 0.00 | 87 | 1010.2 |
| 20260505174204 | 75 | 247 | 8.0 | 11.0 | 0.00 | 0.00 | 0.00 | 87 | 1010.2 |
| 20260505173659 | 75 | 233 | 7.0 | 14.0 | 0.00 | 0.00 | 0.00 | 88 | 1010.2 |
| 20260505172708 | 75 | 213 | 5.0 | 11.0 | 0.00 | 0.00 | 0.00 | 88 | 1010.3 |
| 20260505172119 | 74 | 213 | 8.0 | 13.0 | 0.00 | 0.00 | 0.00 | 88 | 1010.4 |
| 20260505171725 | 74 | 236 | 9.0 | 13.0 | 0.00 | 0.00 | 0.00 | 89 | 1010.3 |
| 20260505171204 | 74 | 239 | 5.0 | 8.0 | 0.00 | 0.00 | 0.00 | 89 | 1010.3 |
| 20260505170701 | 74 | 204 | 3.0 | 8.0 | 0.00 | 0.00 | 0.00 | 89 | 1010.5 |
| 20260505170131 | 74 | 225 | 7.0 | 13.0 | 0.00 | 0.00 | 0.00 | 89 | 1010.5 |
| 20260505165706 | 74 | 230 | 5.0 | 13.0 | 0.00 | 0.00 | 0.00 | 89 | 1010.6 |
| 20260505165200 | 74 | 224 | 7.0 | 13.0 | 0.00 | 0.00 | 0.00 | 89 | 1010.6 |